This is the latest recevied weather packets stored in our database for station/object KO4IDC-13. If no packets are shown the sender has not sent any weather packets the latest 10 day(s).
| Time | Temp. | Humidity | Pressure | Rain* | Wind** | Luminosity | Snow |
|---|---|---|---|---|---|---|---|
| 1777992132 | 18.89° C | 70% | 1011.3 hPa | 0 mm | - | 119 W/m² | - |
| 1777991829 | 18.33° C | 71% | 1011.3 hPa | 0 mm | - | 105 W/m² | - |
| 1777991526 | 18.33° C | 70% | 1011.2 hPa | 0 mm | - | 135 W/m² | - |
| 1777991223 | 18.33° C | 71% | 1010.7 hPa | 0 mm | - | 149 W/m² | - |
| 1777990920 | 18.33° C | 71% | 1011 hPa | 0 mm | - | 98 W/m² | - |
| 1777990618 | 18.33° C | 71% | 1011 hPa | 0 mm | - | 54 W/m² | - |
| 1777990011 | 18.33° C | 71% | 1011.1 hPa | 0 mm | - | 107 W/m² | - |
| 1777989708 | 18.33° C | 71% | 1011 hPa | 0 mm | - | 112 W/m² | - |
| 1777989404 | 18.33° C | 70% | 1011.1 hPa | 0 mm | - | 124 W/m² | - |
| 1777989100 | 17.78° C | 71% | 1010.8 hPa | 0 mm | - | 105 W/m² | - |
| 1777988796 | 17.78° C | 71% | 1010.9 hPa | 0 mm | - | 85 W/m² | - |
| 1777988494 | 17.78° C | 71% | 1010.9 hPa | 0 mm | - | 77 W/m² | - |
| 1777988191 | 17.78° C | 71% | 1010.7 hPa | 0 mm | - | 82 W/m² | - |
| 1777987887 | 17.78° C | 72% | 1010.9 hPa | 0 mm | - | 84 W/m² | - |
| 1777987583 | 17.78° C | 71% | 1010.9 hPa | 0 mm | - | 71 W/m² | - |
| 1777987281 | 17.78° C | 71% | 1010.9 hPa | 0 mm | - | 71 W/m² | - |
| 1777986977 | 17.78° C | 71% | 1010.7 hPa | 0 mm | - | 67 W/m² | - |
| 1777986675 | 17.78° C | 72% | 1010.7 hPa | 0 mm | - | 70 W/m² | - |
| 1777986373 | 17.78° C | 72% | 1010.7 hPa | 0 mm | - | 65 W/m² | - |
| 1777986071 | 17.78° C | 72% | 1010.6 hPa | 0 mm | - | 61 W/m² | - |
| 1777985768 | 17.22° C | 71% | 1010.6 hPa | 0 mm | - | 69 W/m² | - |
| 1777985465 | 17.78° C | 71% | 1010.8 hPa | 0 mm | - | 82 W/m² | - |
| 1777985161 | 17.78° C | 71% | 1010.6 hPa | 0 mm | - | 75 W/m² | - |
| 1777984857 | 17.22° C | 71% | 1010.6 hPa | 0 mm | - | 69 W/m² | - |
| 1777984554 | 17.22° C | 71% | 1010.7 hPa | 0 mm | - | 64 W/m² | - |
* Rain latest hour (hover to see other rain measurements)
** Current wind speed in m/s (hover to see current wind gust speed)